This is the latest recevied weather packets stored in our database for station/object IW7DVM-13. If no packets are shown the sender has not sent any weather packets the latest 10 day(s).
| Time | Temp. | Humidity | Pressure | Rain* | Wind** | Luminosity | Snow |
|---|---|---|---|---|---|---|---|
| 1777899003 | 21.67° C | 49% | 1012.5 hPa | 0 mm | - | - | - |
| 1777898703 | 22.22° C | 50% | 1012.6 hPa | 0 mm | - | - | - |
| 1777898403 | 22.22° C | 52% | 1012.6 hPa | 0 mm | - | - | - |
| 1777898103 | 21.67° C | 52% | 1012.6 hPa | 0 mm | - | - | - |
| 1777897803 | 21.67° C | 54% | 1012.7 hPa | 0 mm | - | - | - |
| 1777897503 | 21.67° C | 55% | 1012.6 hPa | 0 mm | - | - | - |
| 1777897203 | 21.67° C | 53% | 1012.6 hPa | 0 mm | - | - | - |
| 1777896903 | 21.67° C | 53% | 1012.7 hPa | 0 mm | - | - | - |
| 1777896603 | 21.67° C | 49% | 1012.7 hPa | 0 mm | - | - | - |
| 1777896303 | 22.78° C | 47% | 1012.8 hPa | 0 mm | - | - | - |
| 1777896003 | 22.78° C | 51% | 1012.9 hPa | 0 mm | - | - | - |
| 1777895703 | 22.22° C | 51% | 1012.8 hPa | 0 mm | - | - | - |
| 1777895403 | 22.22° C | 50% | 1012.9 hPa | 0 mm | - | - | - |
| 1777895103 | 22.22° C | 51% | 1012.9 hPa | 0 mm | - | - | - |
| 1777894803 | 21.67° C | 51% | 1012.9 hPa | 0 mm | - | - | - |
| 1777894503 | 21.67° C | 54% | 1012.9 hPa | 0 mm | - | - | - |
| 1777894203 | 21.11° C | 57% | 1013 hPa | 0 mm | - | - | - |
| 1777893903 | 20.56° C | 58% | 1013.2 hPa | 0 mm | - | - | - |
| 1777893603 | 20.56° C | 62% | 1013.2 hPa | 0 mm | - | - | - |
| 1777893303 | 20.56° C | 60% | 1013.3 hPa | 0 mm | - | - | - |
| 1777893003 | 20.56° C | 59% | 1013.4 hPa | 0 mm | - | - | - |
| 1777892703 | 21.11° C | 59% | 1013.3 hPa | 0 mm | - | - | - |
| 1777892403 | 20.56° C | 59% | 1013.4 hPa | 0 mm | - | - | - |
| 1777892103 | 20.56° C | 59% | 1013.5 hPa | 0 mm | - | - | - |
| 1777891803 | 20.56° C | 60% | 1013.5 hPa | 0 mm | - | - | - |
* Rain latest hour (hover to see other rain measurements)
** Current wind speed in m/s (hover to see current wind gust speed)